Regional Weather Roundup
Issued by NWS Goodland, KS

Home | Current Version | Previous Version | Text Only | Print | Product List | Glossary On
Versions: 1 2 3 4 5 6 7 8 9 10 11 12 13 14 15 16 17 18 19 20 21 22 23 24 25 26 27 28 29 30 31 32 33 34 35 36 37 38 39 40 41 42 43 44 45 46 47 48 49 50
000
ASUS43 KGLD 021008
RWRGLD

GOODLAND FORECAST AREA HOURLY WEATHER ROUNDUP
NATIONAL WEATHER SERVICE GOODLAND KS
400 AM MDT THU JUL 02 2015

...OFFICIAL OBSERVATIONS...

CITY           SKY/WX    TMP DP  RH WIND       PRES   REMARKS
GOODLAND KS    MOCLDY    65  59  81 W5        30.04R
HILL CITY KS   CLOUDY    74  66  76 E5        29.96R
IMPERIAL NEB   LGT RAIN  64  57  78 N32G46    30.10R
MCCOOK NEB     MOCLDY    72  64  76 SE10      29.94S
AKRON CO       CLEAR     59  56  89 N7        30.10S
BURLINGTON CO  PTCLDY    64  59  83 NW6       30.08R
LIMON CO       CLEAR     61  56  83 CALM      30.14R
$$

...UNOFFICIAL OBSERVATIONS...

CITY           SKY/WX    TMP DP  RH WIND       PRES   REMARKS
COLBY KS       CLEAR     66  63  88 W3        30.02R
GOVE KS          N/A     69  32  25 MISG        N/A
NORTON KS      MOCLDY    73  64  73 E6        29.95F
SHARON SPRINGS   N/A     68  63  84 CALM        N/A
KIT CARSON CO    N/A     62  58  87 MISG        N/A
$$


USA.gov is the U.S. government's official web portal to all federal, state and local government web resources and services.